Notices

What's New in latest Release from April 7th, 2021:

- Updated Glossary, including Speed of Maximum Gust, and Total Hourly Precipitation

- Updated national and regional climate services offices contacts and prices information

- Addition of station inventory lists for 1981-2010, 1971-2000, and 1961-1990 Normals.

If you haven't already, please take our survey and provide feedback about our website: https://eccc.sondage-survey.ca/f/LanguageSelection.aspx?s=442ca660-fcf1-47c0-95a9-59707d6fd709

Hourly Data Report for February 18, 2003

TORONTO CITY
ONTARIO

43°40'00.000" N
79°24'00.000" W
112.50 m
6158355
71508
XTO

Download Data

Hourly Data (February 2003)
Hourly Data Report for February 18, 2003
TIME
LST
Temp Definition
°C
Dew Point Definition
°C
Rel Hum Definition
%
Precip. Amount Definition
mm

Wind Dir Definition
10's deg

Wind Spd Definition
km/h
Visibility Definition
km
Stn Press Definition
kPa
Hmdx Definition


Wind Chill Definition


Weather Definition


00:00 -4.3 -5.6 91     0 LegendMM 100.44     LegendNANA
01:00
02:00 -4.2 -5.1 93     0 LegendMM 100.33     LegendNANA
03:00 -3.8 -4.7 93     0 LegendMM 100.27     LegendNANA
04:00 -3.2 -4.4 91     0 LegendMM 100.22     LegendNANA
05:00 -3.5 -4.7 91     0 LegendMM 100.23     LegendNANA
06:00
07:00 -4.6 -5.8 91     0 LegendMM 100.25     LegendNANA
08:00 -4.4 -5.4 93     0 LegendMM 100.33     LegendNANA
09:00 -4.6 -5.8 91     0 LegendMM 100.36     LegendNANA
10:00 -4.4 -5.7 91     0 LegendMM 100.36     LegendNANA
11:00 -4.0 -5.5 89     0 LegendMM 100.33     LegendNANA
12:00 -3.0 -4.5 89     0 LegendMM 100.37     LegendNANA
13:00
14:00 -1.4 -4.5 79     0 LegendMM 100.30     LegendNANA
15:00 -1.5 -4.8 78     0 LegendMM 100.34     LegendNANA
16:00 -1.2 -4.6 78     0 LegendMM 100.31     LegendNANA
17:00 -1.6 -4.4 81     0 LegendMM 100.40     LegendNANA
18:00 -1.3 -3.4 86     0 LegendMM 100.44     LegendNANA
19:00 -0.4 -3.3 81     0 LegendMM 100.48     LegendNANA
20:00 -0.7 -3.5 81     0 LegendMM 100.51     LegendNANA
21:00 -0.8 -3.9 79     0 LegendMM 100.49     LegendNANA
22:00 -1.0 -3.6 82     0 LegendMM 100.47     LegendNANA
23:00 -1.0 -3.9 81     0 LegendMM 100.44     LegendNANA

Notes on Data Quality.

Legend

  • E = Estimated
  • M = Missing
  • NA = Not Available*
  • [empty] = Indicates an unobserved value
Date modified: